Regional Weather Roundup
Issued by NWS Lake Charles, LA

Home | Current Version | Previous Version | Text Only | Print | Product List | Glossary On
Versions: 1 2 3 4 5 6 7 8 9 10 11 12 13 14 15 16 17 18 19 20 21 22 23 24 25 26 27 28 29 30 31 32 33 34 35 36 37 38 39 40 41 42 43 44 45 46 47 48 49 50
000
ASUS44 KLCH 030510
RWRLCH
RWRLCH
REGIONAL WEATHER ROUNDUP
NATIONAL WEATHER SERVICE LAKE CHARLES LA
1100 PM CST MON MAR 02 2015

Note: "fair" indicates few or no clouds below 12,000 feet with no
significant weather and/or obstructions to visibility.


ACROSS SOUTHEAST TEXAS

CITY           SKY/WX    TMP DP  RH WIND       PRES   REMARKS
BEAUMONT       FOG       58  57  97 E9        30.17F VSB 1/2
BEAUMONT CITY  FOG       58  58 100 E5        30.18S VSB 1/2
ORANGE         FOG       56  56 100 E5        30.19S VSB 1/2
JASPER         FOG       50  49  98 NE3       30.21F VSB 3/4
$$

ACROSS CENTRAL LOUISIANA

CITY           SKY/WX    TMP DP  RH WIND       PRES   REMARKS
LEESVILLE      CLOUDY    48  46  93 NE5       30.18F FOG
FULLERTON      FOG       50  47  89 CALM      30.17F VSB 3/4
ALEXANDRIA INT FOG       44  44 100 NE5       30.21S VSB 3/4
ESLER FIELD    CLOUDY    43  43 100 VRB3      30.21F FOG
DERIDDER       FOG       50  49  95 CALM      30.21S VSB 3/4
OAKDALE        CLOUDY    49  48  96 NE3       30.20F FOG
OPELOUSAS      FOG       49  49  99 NE5       30.20F VSB 1/2
$$

ACROSS SOUTHWEST AND SOUTH CENTRAL LOUISIANA

CITY           SKY/WX    TMP DP  RH WIND       PRES   REMARKS
SULPHUR        FOG       55  55 100 E5        30.19S VSB 3/4
LAKE CHARLES   FOG       54  53  97 E7        30.18F VSB 1/2
CHENNAULT INT  FOG       53  53 100 NE7       30.19F VSB 3/4
CAMERON PHI    FOG       57  57 100 E7        30.20F VSB 1/4
DEQUINCY       NOT AVBL
JENNINGS       CLOUDY    51  51 100 E7        30.19S FOG
LAFAYETTE      FOG       53  53 100 NE7       30.19F VSB 1/2
NEW IBERIA     FOG       56  55  97 NE8       30.19F VSB 1/4
ABBEVILLE      NOT AVBL
PATTERSON      MOCLDY    66  64  94 NE5       30.19F
SALT POINT       N/A     66  66 100 CALM      30.17F
$$

SELECTED SITES ACROSS THE REGION

CITY           SKY/WX    TMP DP  RH WIND       PRES   REMARKS
HOUSTON BUSH   FOG       56  55  97 E5        30.16F VSB 1/4
HOUSTON HOBBY  FOG       58  58 100 CALM      30.15F VSB 1/2
GALVESTON      FOG       57  57 100 E12       30.17S VSB 1/2
COLLEGE STAT   FOG       45  45 100 N3        30.17F VSB 3/4
CONROE         FOG       51  50  96 NE3       30.17S VSB 3/4
HUNTSVILLE     FOG       49  49 100 NE3       30.16F VSB 1
LUFKIN         CLOUDY    50  46  86 NE3       30.19S FOG
SHREVEPORT     CLOUDY    42  41  96 E6        30.21F
MONROE         CLOUDY    40  40 100 NE6       30.23F FOG
NATCHEZ MS     CLOUDY    45  43  93 N3        30.22F
BATON ROUGE    FOG       56  56 100 CALM      30.20F VSB 1/4
N.O. INTL ARPT FOG       68  66  93 S6        30.19F VSB 3/4
SLIDELL        FOG       66  65  96 E3        30.20S VSB 1
$$

MARINE REPORTS

STATION/POSITION TIME  TEMP    WIND        PRES    VSBY  WAVE
                       AIR SEA DIR/SP/G                  HT/PER
                 (UTC) (F)     (DEG/KT/KT) (MB)    (MI)  (FT/S)
BUOY 30 S HIGH I 0500   58 58   70/  8/  8 1021.0F         2/ 7
SEA RIM ST PARK  0500   56     110/  5/  7 1022.2S
PORT ARTHUR      0500      55                N/A
SABINE PASS N    0500   57 53                N/A
TEXAS POINT      NOT AVBL
CALCASIEU PASS   0500   57 55                N/A
LK CHARLES BEACH 0500   53                   N/A
MARSH ISLAND     0400   60      40/  6/  8   N/A           0
FRESH WATER LOCK 0500   61 60                N/A
AMERADA PASS     0500   66 51                N/A
$$


USA.gov is the U.S. government's official web portal to all federal, state and local government web resources and services.